Home   Weather   Lahr   Past weeks

Flag for Germany Past Weather in Lahr, Baden-Württemberg, Germany — Yesterday and Last 2 Weeks

Now
41 °F

Overcast.


Feels Like: 41 °F
Forecast: 33 / 59 °F
Wind: 1 mph from Southeast

Location: Lahr

Current Time: Apr 28, 2017 at 2:55:12 am

Latest Report: Apr 28, 2017 at 1:00 am


Visibility: 3 mi

Pressure: 29.98 "Hg

Humidity: 93%

Dew Point: 39 °F

Location of LahrLocation

Past Weather in Lahr — Graph

°F

Lahr Temperature Yesterday

Maximum temperature yesterday: 48 °F (at 4:00 pm)
Minimum temperature yesterday: 39 °F (at 7:00 am)
Average temperature yesterday: 43 °F

High & Low Weather Summary for the Past Weeks

 TemperatureHumidityPressure
High67 °F (Apr 24, 6:00 pm)100% (Apr 18, 12:00 am)30.61 "Hg (Apr 18, 12:00 am)
Low28 °F (Apr 20, 7:00 am)26% (Apr 21, 4:00 pm)29.78 "Hg (Apr 25, 6:00 am)
Average46 °F72%30.16 "Hg
* Reported Apr 13 1:00 am — Apr 28 1:00 am, Lahr, Weather by CustomWeather, © 2017

Note: Actual official high and low records may vary slightly from our data, if they occured in-between our weather recording intervals... More about our weather records

Advertising

Lahr Weather History for the Previous 24 Hours

Scroll right to see more
 ConditionsComfort  
Time TempWeatherWind HumidityBarometerVisibility
1:00 am
Fri, Apr 28
41 °FOvercast.1 mph93%29.98 "Hg3 mi
12:00 am42 °FOvercast.1 mph89%29.98 "Hg5 mi
11:00 pm
Thu, Apr 27
N/APassing clouds.3 mphN/AN/A2 mi
10:00 pm43 °FPassing clouds.2 mph81%29.99 "Hg9 mi
9:00 pm44 °FDrizzle. Overcast.3 mph81%30.00 "Hg7 mi
7:00 pm47 °FPassing clouds.2 mph69%29.97 "Hg10 mi
6:00 pm47 °FOvercast.2 mph71%29.97 "Hg11 mi
4:00 pm48 °FPassing clouds.1 mph66%29.99 "Hg17 mi
3:00 pm47 °FScattered clouds.1 mph67%30.00 "Hg16 mi
1:00 pm46 °FOvercast.2 mph74%30.01 "Hg12 mi
12:00 pm44 °FOvercast.3 mph79%30.02 "Hg7 mi
11:00 amN/APassing clouds.6 mphN/AN/A1 mi
10:00 am42 °FOvercast.2 mph87%30.02 "Hg8 mi
9:00 am41 °FLow clouds.2 mph93%30.01 "Hg5 mi
7:00 am39 °FLight rain. Overcast.3 mph95%30.00 "Hg4 mi
6:00 am39 °FLight rain. Low clouds.3 mph97%29.99 "Hg2 mi
4:00 am39 °FLight rain. Low clouds.5 mph93%29.97 "Hg3 mi
3:00 am40 °FLight rain. Low clouds.6 mph96%29.96 "Hg3 mi
Weather by CustomWeather, © 2017

See weather overviewHow to use our weather pages